This demonstration page uses our WeatherBlox Daily Observations layout. Learn more.

Left ArrowRight Arrow

39.51506, -84.39828

Hourly Observations for June 11, 2015

Temp ( °F °C ) Dew Point ( °F °C ) Humidity (%) Winds ( mph kmh ) Pressure ( in mb ) Visibility ( mi km ) Precip ( " mm )
12:15 am 00:15 Clear 70 21.3 63 17.2 78 78 W 3 6 29.88 1012 10 16 N/A
12:35 am 00:35 Clear 73 22.9 65 18.4 76 76 S 3 6 29.88 1012 10 16 N/A
12:55 am 00:55 Clear 69 20.8 64 17.7 83 83 SW 3 6 29.88 1012 10 16 N/A
1:15 am 01:15 Clear 69 20.8 64 17.8 83 83 WSW 6 9 29.85 1011 10 16 N/A
1:35 am 01:35 Clear 69 20.8 63 17.1 79 79 SW 6 9 29.85 1011 10 16 N/A
1:55 am 01:55 Clear 69 20.8 62 16.6 77 77 N N/A 29.88 1012 10 16 N/A
2:15 am 02:15 Clear 72 22.3 62 16.9 72 72 N N/A 29.88 1012 10 16 N/A
2:35 am 02:35 Clear 74 23.1 63 17.3 70 70 N N/A 29.88 1012 10 16 N/A
2:55 am 02:55 Clear 71 21.6 62 16.4 72 72 WSW 3 6 29.88 1012 10 16 N/A
3:15 am 03:15 Clear 69 20.8 63 17.1 79 79 WSW 3 6 29.88 1012 10 16 N/A
3:35 am 03:35 Clear 69 20.8 62 16.5 77 77 N N/A 29.88 1012 10 16 N/A
3:55 am 03:55 Clear 69 20.8 64 17.9 84 84 N N/A 29.88 1012 10 16 N/A
4:15 am 04:15 Clear 69 20.5 64 17.9 85 85 N N/A 29.88 1012 10 16 N/A
4:35 am 04:35 Clear 67 19.5 63 17 86 86 N N/A 29.88 1012 10 16 N/A
4:55 am 04:55 Clear 67 19.6 63 17.1 86 86 N N/A 29.88 1012 10 16 N/A
5:15 am 05:15 Clear 67 19.5 63 17 86 86 N N/A 29.88 1012 10 16 N/A
5:35 am 05:35 Clear 66 19.1 62 16.8 87 87 N N/A 29.88 1012 10 16 N/A
5:55 am 05:55 Clear 65 18.2 61 16.1 88 88 N N/A 29.88 1012 7 11 N/A
6:15 am 06:15 Sunny 64 18 61 16 88 88 N N/A 29.91 1013 7 11 N/A
6:35 am 06:35 Sunny 64 18 61 16 88 88 N N/A 29.91 1013 7 11 N/A
6:55 am 06:55 Sunny 66 19 62 16.8 87 87 N N/A 29.91 1013 7 11 N/A
7:15 am 07:15 Sunny 68 19.9 64 17.6 87 87 N N/A 29.91 1013 7 11 N/A
7:35 am 07:35 Sunny 69 20.8 65 18.5 87 87 N N/A 29.91 1013 7 11 N/A
7:55 am 07:55 Sunny 69 20.8 64 17.9 84 84 N N/A 29.91 1013 10 16 N/A
8:15 am 08:15 Sunny 74 23.6 67 19.6 78 78 N N/A 29.91 1013 10 16 N/A
8:35 am 08:35 Sunny 74 23.6 65 18.5 73 73 N N/A 29.91 1013 10 16 N/A
8:55 am 08:55 Sunny 77 25.1 64 17.7 64 64 WSW 3 6 29.91 1013 10 16 N/A
9:15 am 09:15 Sunny 80 26.5 65 18.5 62 62 SSW 7 11 29.94 1014 10 16 N/A
9:35 am 09:35 Sunny 80 26.5 65 18.1 60 60 W 7 11 29.94 1014 10 16 N/A
9:55 am 09:55 Sunny 80 26.6 64 18 59 59 WSW 5 7 29.94 1014 10 16 N/A
10:15 am 10:15 Sunny 81 27.2 64 17.7 56 56 SW 8 13 29.94 1014 10 16 N/A
10:35 am 10:35 Sunny 83 28.2 64 18 54 54 SW 13 20 29.91 1013 10 16 N/A
10:55 am 10:55 Sunny 84 28.8 64 18 52 52 SW 9 15 29.91 1013 10 16 N/A
11:15 am 11:15 Sunny 85 29.4 65 18.4 52 52 SSW 9 15 29.91 1013 10 16 N/A
11:35 am 11:35 Sunny 88 31.2 67 19.7 50 50 SSW 8 13 29.91 1013 10 16 N/A
11:55 am 11:55 Sunny 90 32.1 67 19.5 47 47 SSW 7 11 29.88 1012 10 16 N/A
12:15 pm 12:15 Sunny 90 32.1 66 18.8 45 45 SSW 10 17 29.88 1012 10 16 N/A
12:35 pm 12:35 Sunny 90 32.1 65 18.6 45 45 SW 10 17 29.88 1012 10 16 N/A
12:55 pm 12:55 Sunny 90 32.1 65 18.2 44 44 SW 10 17 29.88 1012 10 16 N/A
1:15 pm 13:15 Sunny 90 32.1 62 16.9 40 40 SW 10 17 29.88 1012 10 16 N/A
1:35 pm 13:35 Sunny 90 32.1 61 16.1 38 38 SW 12 19 29.88 1012 10 16 N/A
1:55 pm 13:55 Sunny 90 32.1 62 16.6 39 39 W 9 15 29.88 1012 10 16 N/A
2:15 pm 14:15 Sunny 90 32.1 61 16.3 39 39 WSW 9 15 29.88 1012 10 16 N/A
2:35 pm 14:35 Partly Cloudy 90 32.1 61 16.1 38 38 SW 8 13 29.85 1011 10 16 N/A
2:55 pm 14:55 Partly Cloudy 92 33.2 62 16.7 37 37 SW 8 13 29.85 1011 10 16 N/A
3:15 pm 15:15 Partly Cloudy 90 32.4 60 15.7 37 37 SW 13 20 29.85 1011 10 16 N/A
3:35 pm 15:35 Partly Cloudy 91 32.5 58 14.5 34 34 SSW 9 15 29.85 1011 10 16 N/A
3:55 pm 15:55 Sunny 91 32.8 59 15.1 34 34 WSW 10 17 29.85 1011 10 16 N/A
4:15 pm 16:15 Partly Cloudy 92 33.5 60 15.5 34 34 SW 9 15 29.85 1011 10 16 N/A
4:35 pm 16:35 Partly Cloudy 93 34 61 16.1 34 34 WSW 9 15 29.85 1011 10 16 N/A
4:55 pm 16:55 Sunny 94 34.5 59 15.2 31 31 WSW 12 19 29.85 1011 10 16 N/A
5:15 pm 17:15 Sunny 94 34.2 59 14.9 31 31 SW 10 17 29.85 1011 10 16 N/A
5:35 pm 17:35 Sunny 92 33.5 59 15.1 33 33 SW 12 19 29.83 1010 10 16 N/A
5:55 pm 17:55 Sunny 90 32.1 56 13.2 32 32 SW 12 19 29.83 1010 10 16 N/A
6:15 pm 18:15 Sunny 90 32.3 58 14.2 33 33 SW 10 17 29.83 1010 10 16 N/A
6:35 pm 18:35 Sunny 90 32.1 57 14 33 33 WSW 10 17 29.83 1010 10 16 N/A
6:55 pm 18:55 Sunny 90 32.1 60 15.8 37 37 WSW 8 13 29.83 1010 10 16 N/A
7:15 pm 19:15 Sunny 88 31.1 61 16.2 41 41 WSW 7 11 29.83 1010 10 16 N/A
7:35 pm 19:35 Sunny 84 29.1 64 17.8 51 51 W 3 6 29.83 1010 10 16 N/A
7:55 pm 19:55 Sunny 83 28.6 63 17.2 50 50 SW 5 7 29.83 1010 10 16 N/A
8:15 pm 20:15 Sunny 83 28.4 63 17.3 51 51 SW 5 7 29.83 1010 10 16 N/A
8:35 pm 20:35 Sunny 82 28 63 17.4 53 53 WSW 5 7 29.83 1010 10 16 N/A
8:55 pm 20:55 Sunny 80 26.5 69 20.4 69 69 N N/A 29.83 1010 10 16 N/A
9:15 pm 21:15 Clear 77 25.1 66 19.1 69 69 N N/A 29.85 1011 10 16 N/A
9:35 pm 21:35 Clear 74 23.6 67 19.6 78 78 N N/A 29.85 1011 10 16 N/A
9:55 pm 21:55 Clear 74 23.6 68 20 80 80 NNW 3 6 29.88 1012 10 16 N/A
10:15 pm 22:15 Clear 74 23.6 67 19.6 78 78 N N/A 29.85 1011 10 16 N/A
10:35 pm 22:35 Clear 74 23.6 68 20 80 80 N N/A 29.88 1012 10 16 N/A
10:55 pm 22:55 Clear 74 23.6 67 19.6 78 78 N N/A 29.88 1012 10 16 N/A
11:15 pm 23:15 Partly Cloudy 74 23.6 69 20.5 83 83 N N/A 29.88 1012 10 16 N/A
11:35 pm 23:35 Mostly Cloudy 74 23.6 68 20.1 81 81 N N/A 29.88 1012 10 16 N/A
11:55 pm 23:55 Partly Cloudy 74 23.6 69 20.5 83 83 N N/A 29.88 1012 10 16 N/A

Powered by AerisWeather